Location: Boiro
(42.6475°N, 8.8834°W)
Time: 07:42:02
(UTC+02:00)

NANOSAT C BR1 - Pass Details

Date: 20 August 2022
Orbit: 582 x 600 km, 98.0° (Epoch: 25 September)

Event Time Altitude Azimuth Distance (km) Brightness Sun altitude
Rises 04:01:15 0° 26° (NNE) 2,834 ? -31.7°
Reaches altitude 10° 04:03:46 10° 40° (NE) 1,924 ? -31.5°
Enters shadow 04:05:55 21° 67° (ENE) 1,344 ? -31.4°
